Franklin, PA

1:18 PM EST on December 15, 2019 (GMT -0500)
Venango Regional

Weather History for KFKL - August, 2019

Change the Weather History Date:

Thursday, August 1, 2019

  Actual Average Record
Temperature  
Mean Temperature 72 °F -  
Max Temperature 82 °F 81 °F 101 °F (1933)
Min Temperature 61 °F 57 °F 44 °F (1952)
Cooling Degree Days 6    
Growing Degree Days 22 (Base 50)    
Moisture  
Dew Point 61 °F    
Average Humidity 73    
Maximum Humidity 97    
Minimum Humidity 47    
Precipitation  
Precipitation 0.00 in - - ()
Sea Level Pressure  
Sea Level Pressure 30.14 in    
Wind  
Wind Speed 3 mph (NE)    
Max Wind Speed 8 mph    
Max Gust Speed -    
Visibility 10 miles    
Events      
Averages and records for this station are not official NWS values.
T = Trace of Precipitation, MM = Missing Value Source: NWS Daily Summary

Daily Weather History Graph

Daily Weather History Graph

Search for Another Location

Airport or City:

Astronomy

Aug. 01, 2019 Rise Set
Actual Time 6:14 AM EDT 8:36 PM EDT
Civil Twilight 5:43 AM EDT 9:07 PM EDT
Nautical Twilight 5:04 AM EDT 9:46 PM EDT
Astronomical Twilight 4:21 AM EDT 10:28 PM EDT
Moon 6:36 AM EDT (8/1) 9:22 PM EDT (8/1)
Length of Visible Light 15h 24m
Length of Day
14h 22m
New Moon, 0% of the Moon is Illuminated
Aug 1
New Moon
Aug 7
First Quarter
Aug 15
Full
Aug 23
Last Quarter
Aug 30
New

Hourly Weather History & Observations

Time (EDT) Temp. Heat Index Dew Point Humidity Pressure Visibility Wind Dir Wind Speed Gust Speed Precip Events Conditions
12:56 AM 64.0 °F - 62.1 °F 93% 30.12 in 10.0 mi Calm Calm - N/A   Clear
1:56 AM 63.0 °F - 61.0 °F 93% 30.12 in 10.0 mi NE 3.5 mph - N/A   Clear
2:56 AM 62.1 °F - 61.0 °F 96% 30.14 in 10.0 mi NW 3.5 mph - N/A   Mostly Cloudy
3:56 AM 62.1 °F - 61.0 °F 96% 30.14 in 10.0 mi North 5.8 mph - N/A   Overcast
4:56 AM 61.0 °F - 60.1 °F 97% 30.14 in 10.0 mi Calm Calm - N/A   Clear
5:56 AM 61.0 °F - 60.1 °F 97% 30.14 in 10.0 mi NNE 5.8 mph - N/A   Mostly Cloudy
6:56 AM 61.0 °F - 60.1 °F 97% 30.14 in 10.0 mi North - - N/A   Clear
7:56 AM 64.9 °F - 61.0 °F 87% 30.15 in 10.0 mi NE 4.6 mph - N/A   Partly Cloudy
8:56 AM 68.0 °F - 60.1 °F 76% 30.16 in 10.0 mi ENE 5.8 mph - N/A   Clear
9:56 AM 71.1 °F - 60.1 °F 68% 30.17 in 10.0 mi ESE 3.5 mph - N/A   Mostly Cloudy
10:56 AM 73.9 °F - 61.0 °F 64% 30.18 in 10.0 mi NE 4.6 mph - N/A   Overcast
11:56 AM 75.9 °F - 61.0 °F 60% 30.18 in 10.0 mi NE 4.6 mph - N/A   Mostly Cloudy
12:56 PM 77.0 °F - 62.1 °F 60% 30.18 in 10.0 mi Calm Calm - N/A   Scattered Clouds
1:56 PM 78.1 °F - 63.0 °F 60% 30.17 in 10.0 mi East 6.9 mph - N/A   Clear
2:56 PM 79.0 °F - 62.1 °F 56% 30.16 in 10.0 mi Calm Calm - N/A   Mostly Cloudy
3:56 PM 81.0 °F 81.6 °F 60.1 °F 49% 30.13 in 10.0 mi NNE 3.5 mph - N/A   Clear
4:56 PM 82.0 °F 82.4 °F 60.1 °F 47% 30.12 in 10.0 mi Variable 4.6 mph - N/A   Clear
5:56 PM 79.0 °F - 62.1 °F 56% 30.11 in 10.0 mi NNE 3.5 mph - N/A   Clear
6:56 PM 79.0 °F - 60.1 °F 52% 30.11 in 10.0 mi Calm Calm - N/A   Clear
7:56 PM 73.9 °F - 63.0 °F 68% 30.12 in 10.0 mi Calm Calm - N/A   Clear
8:56 PM 70.0 °F - 60.1 °F 71% 30.13 in 10.0 mi North 5.8 mph - N/A   Clear
9:56 PM 68.0 °F - 57.0 °F 68% 30.14 in 10.0 mi NNE 8.1 mph - N/A   Clear
10:56 PM 66.0 °F - 57.0 °F 73% 30.15 in 10.0 mi North 5.8 mph - N/A   Scattered Clouds
11:56 PM 66.0 °F - 57.0 °F 73% 30.15 in 10.0 mi North 5.8 mph - N/A   Mostly Cloudy